カタログに戻る

USA 370

運用中軍事VLEO
NORAD 59830·PAYLOAD·🇺🇸 United States

打ち上げ May 22, 2024 から Vandenberg Space Force Base

Loading…

次のパス (今後24時間)

TLE

古いSource: Mike McCants

元期: Aug 21, 2026, 21:28 UTC

1 59830U 24096S   26233.89513297 0.00000000  00000-0  00000-0 0    09
2 59830  70.0210 161.9059 0003032 265.0843  94.9157 14.96712533    00

AllMySatでUSA 370をリアルタイム追跡

Download on the App Store